Date String (YYYY-MM-DD hh:mm:ss) UTC,Instrument flags,Ambient pressure (hPa),Sample flow (lpm),Bypass flow (lpm),Sample temperature (°C),Ambient temperature (°C),ASC tube jacket temperature (°C),LED temperature (°C),Box temperature (°C),Sample RH (%),Span deviation,Mass concentration (μg/m³),Mass concentration (μg/m³),Mass concentration (μg/m³)
DateTimeUTC,F1_M11,P_M11,Q1_M11,Q2_M11,T1_M11,T2_M11,T3_M11,T4_M11,T5_M11,U1_M11,ZSPAN_M11,X0_M11,X2_M11,X1_M11
2023-05-14 12:00:00,,0840.4,5.00,0.00,28.4,26.8,00.0,36.8,30.0,27.7,0000.0,0000.84,0000.49,0000.33
2023-05-14 12:01:00,,0840.4,5.01,0.00,28.4,26.8,00.0,36.8,30.0,27.6,0000.0,0000.80,0000.47,0000.32
2023-05-14 12:02:00,,0840.4,5.00,0.00,28.4,26.8,00.0,36.8,30.0,27.5,0000.0,0000.82,0000.47,0000.32
2023-05-14 12:03:00,,0840.3,5.01,0.00,28.4,26.9,00.0,36.8,30.0,27.4,0000.0,0000.82,0000.47,0000.32
2023-05-14 12:04:00,,0840.4,5.00,0.00,28.4,26.9,00.0,36.8,30.0,27.3,0000.0,0000.81,0000.47,0000.32
2023-05-14 12:05:00,,0840.4,4.99,0.00,28.4,26.9,00.0,36.8,30.0,27.2,0000.0,0000.83,0000.48,0000.32
2023-05-14 12:06:00,,0840.4,5.00,0.00,28.4,26.9,00.0,36.8,30.0,27.1,0000.0,0000.82,0000.49,0000.33
2023-05-14 12:07:00,,0840.4,5.00,0.00,28.5,26.9,00.0,36.8,30.1,27.1,0000.0,0000.82,0000.50,0000.34
2023-05-14 12:08:00,,0840.4,5.00,0.00,28.5,26.9,00.0,36.8,30.1,27.0,0000.0,0000.83,0000.51,0000.34
2023-05-14 12:09:00,,0840.5,5.01,0.00,28.5,26.9,00.0,36.8,30.1,27.1,0000.0,0000.87,0000.53,0000.35
2023-05-14 12:10:00,,0840.5,5.01,0.00,28.5,26.9,00.0,36.8,30.1,27.0,0000.0,0000.83,0000.52,0000.36
2023-05-14 12:11:00,,0840.5,4.99,0.00,28.5,27.0,00.0,36.8,30.1,27.0,0000.0,0000.78,0000.50,0000.36
2023-05-14 12:12:00,,0840.5,5.00,0.00,28.5,27.0,00.0,36.8,30.1,27.1,0000.0,0000.80,0000.51,0000.36
2023-05-14 12:13:00,,0840.5,5.01,0.00,28.5,27.0,00.0,36.8,30.1,26.8,0000.0,0000.85,0000.52,0000.37
2023-05-14 12:14:00,,0840.5,5.01,0.00,28.5,27.0,00.0,36.8,30.1,26.8,0000.0,0000.93,0000.53,0000.36
2023-05-14 12:15:00,,0840.5,5.00,0.00,28.5,27.0,00.0,36.8,30.1,26.7,0000.0,0000.96,0000.54,0000.37
2023-05-14 12:16:00,,0840.5,4.99,0.00,28.5,27.0,00.0,36.8,30.2,26.7,0000.0,0000.99,0000.55,0000.38
2023-05-14 12:17:00,,0840.5,5.01,0.00,28.6,27.0,00.0,36.8,30.2,26.6,0000.0,0001.00,0000.55,0000.38
2023-05-14 12:18:00,,0840.5,5.01,0.00,28.6,27.0,00.0,36.9,30.2,26.6,0000.0,0001.07,0000.56,0000.38
2023-05-14 12:19:00,,0840.5,5.00,0.00,28.6,27.0,00.0,36.9,30.2,26.7,0000.0,0001.16,0000.59,0000.39
2023-05-14 12:20:00,,0840.5,4.98,0.00,28.6,27.0,00.0,36.9,30.2,26.7,0000.0,0001.13,0000.59,0000.38
2023-05-14 12:21:00,,0840.5,5.01,0.00,28.6,27.0,00.0,36.9,30.2,26.6,0000.0,0001.16,0000.61,0000.39
2023-05-14 12:22:00,,0840.5,5.00,0.00,28.6,27.1,00.0,36.9,30.2,26.4,0000.0,0001.14,0000.61,0000.39
2023-05-14 12:23:00,,0840.5,5.00,0.00,28.6,27.1,00.0,36.9,30.2,26.5,0000.0,0001.19,0000.63,0000.41
2023-05-14 12:24:00,,0840.5,5.00,0.00,28.6,27.1,00.0,36.9,30.2,26.3,0000.0,0001.17,0000.64,0000.42
2023-05-14 12:25:00,,0840.5,4.98,0.00,28.6,27.1,00.0,36.9,30.2,26.3,0000.0,0001.07,0000.63,0000.42
2023-05-14 12:26:00,,0840.6,5.01,0.00,28.6,27.1,00.0,36.9,30.2,26.2,0000.0,0001.09,0000.64,0000.43
2023-05-14 12:27:00,,0840.6,5.00,0.00,28.6,27.1,00.0,36.9,30.2,26.2,0000.0,0001.05,0000.63,0000.43
2023-05-14 12:28:00,,0840.6,5.00,0.00,28.6,27.1,00.0,36.9,30.2,26.3,0000.0,0001.02,0000.63,0000.43
2023-05-14 12:29:00,,0840.6,5.00,0.00,28.7,27.1,00.0,36.9,30.3,26.3,0000.0,0001.00,0000.62,0000.43
2023-05-14 12:30:00,,0840.6,4.99,0.00,28.7,27.1,00.0,36.9,30.3,26.5,0000.0,0000.90,0000.58,0000.43
2023-05-14 12:31:00,,0840.6,4.99,0.00,28.7,27.1,00.0,37.0,30.3,26.5,0000.0,0000.88,0000.57,0000.42
2023-05-14 12:32:00,,0840.6,5.01,0.00,28.7,27.1,00.0,37.0,30.3,26.4,0000.0,0000.95,0000.57,0000.42
2023-05-14 12:33:00,,0840.6,5.01,0.00,28.7,27.1,00.0,37.0,30.3,26.4,0000.0,0001.05,0000.58,0000.41
2023-05-14 12:34:00,,0840.6,5.00,0.00,28.7,27.1,00.0,37.0,30.3,26.6,0000.0,0000.97,0000.54,0000.39
2023-05-14 12:35:00,,0840.7,4.99,0.00,28.7,27.1,00.0,37.0,30.3,26.6,0000.0,0000.94,0000.53,0000.38
2023-05-14 12:36:00,,0840.7,5.00,0.00,28.7,27.1,00.0,37.0,30.3,26.7,0000.0,0000.89,0000.51,0000.38
2023-05-14 12:37:00,,0840.7,5.00,0.00,28.7,27.1,00.0,37.0,30.3,26.6,0000.0,0000.86,0000.49,0000.37
2023-05-14 12:38:00,,0840.8,5.00,0.00,28.7,27.1,00.0,37.0,30.3,26.8,0000.0,0000.83,0000.47,0000.35
2023-05-14 12:39:00,,0840.8,5.00,0.00,28.7,27.1,00.0,37.0,30.3,26.5,0000.0,0000.84,0000.46,0000.34
2023-05-14 12:40:00,,0840.7,5.00,0.00,28.7,27.1,00.0,37.0,30.3,26.3,0000.0,0000.81,0000.46,0000.34
2023-05-14 12:41:00,,0840.8,5.00,0.00,28.7,27.1,00.0,37.0,30.3,26.2,0000.0,0000.78,0000.45,0000.34
2023-05-14 12:42:00,,0840.8,5.00,0.00,28.7,27.2,00.0,37.0,30.3,26.4,0000.0,0000.82,0000.47,0000.35
2023-05-14 12:43:00,,0840.7,5.01,0.00,28.7,27.2,00.0,37.0,30.3,26.3,0000.0,0000.80,0000.47,0000.36
2023-05-14 12:44:00,,0840.7,4.99,0.00,28.7,27.2,00.0,37.0,30.3,26.5,0000.0,0000.70,0000.46,0000.36
2023-05-14 12:45:00,,0840.7,5.00,0.00,28.7,27.2,00.0,37.0,30.3,27.2,0000.0,0000.80,0000.50,0000.37
2023-05-14 12:46:00,,0840.8,5.01,0.00,28.7,27.2,00.0,37.0,30.3,27.2,0000.0,0000.77,0000.49,0000.36
2023-05-14 12:47:00,,0840.8,5.01,0.00,28.7,27.2,00.0,37.0,30.3,27.0,0000.0,0000.86,0000.52,0000.36
2023-05-14 12:48:00,,0840.8,4.99,0.00,28.7,27.2,00.0,37.0,30.3,26.9,0000.0,0000.91,0000.53,0000.37
2023-05-14 12:49:00,,0840.8,4.99,0.00,28.7,27.2,00.0,37.0,30.3,26.9,0000.0,0000.99,0000.55,0000.37
2023-05-14 12:50:00,,0840.8,5.01,0.00,28.8,27.2,00.0,37.0,30.4,27.0,0000.0,0000.95,0000.54,0000.37
2023-05-14 12:51:00,,0840.9,5.01,0.00,28.8,27.2,00.0,37.1,30.4,27.3,0000.0,0000.91,0000.52,0000.36
2023-05-14 12:52:00,,0840.9,5.00,0.00,28.8,27.2,00.0,37.1,30.4,27.4,0000.0,0000.92,0000.52,0000.35
2023-05-14 12:53:00,,0841.0,5.00,0.00,28.8,27.2,00.0,37.1,30.4,27.4,0000.0,0000.94,0000.52,0000.34
2023-05-14 12:54:00,,0841.0,4.98,0.00,28.8,27.2,00.0,37.1,30.4,27.5,0000.0,0000.97,0000.52,0000.33
2023-05-14 12:55:00,,0841.0,5.00,0.00,28.8,27.2,00.0,37.1,30.4,27.5,0000.0,0001.08,0000.53,0000.33
2023-05-14 12:56:00,,0841.0,5.01,0.00,28.8,27.2,00.0,37.1,30.4,27.6,0000.0,0001.55,0000.52,0000.32
2023-05-14 12:57:00,,0841.0,5.01,0.00,28.8,27.2,00.0,37.1,30.4,27.6,0000.0,0001.79,0000.53,0000.33
2023-05-14 12:58:00,,0841.1,5.00,0.00,28.8,27.2,00.0,37.1,30.3,27.5,0000.0,0001.73,0000.51,0000.33
2023-05-14 12:59:00,,0841.1,4.99,0.00,28.8,27.2,00.0,37.1,30.4,27.4,0000.0,0001.67,0000.50,0000.32
